Weather Roundup
Issued by NWS Springfield, MO

Home | Current Version | Previous Version | Text Only | Print | Product List | Glossary On
Versions: 1 2 3 4 5 6 7 8 9 10 11 12 13 14 15 16 17 18 19 20 21 22 23 24 25 26 27 28 29 30 31 32 33 34 35 36 37 38 39 40 41 42 43 44 45 46 47 48 49 50
000
NZUS99 KSGF 291507
HRRSGF

HOURLY WEATHER
NATIONAL WEATHER SERVICE SPRINGFIELD MO
1000 AM CDT FRI JUL 29 2016

......SGF CWA......

CITY           SKY/WX    TMP DP  RH WIND       PRES   REMARKS
SPRINGFIELD    CLOUDY    81  72  74 SW6       29.98F
JOPLIN         CLOUDY    77  69  76 CALM      30.00S
WEST PLAINS    SUNNY     81  70  69 CALM      30.02S
ROLLA          CLOUDY    74  68  81 CALM      29.99R
OSAGE BEACH    CLOUDY    75  70  84 CALM      30.01R
BRANSON        PTSUNNY   81  73  78 CALM      30.02S

......SURROUNDING SGF CWA......

CITY           SKY/WX    TMP DP  RH WIND       PRES   REMARKS
CHANUTE        CLOUDY    72  68  87 NW8       30.04R
PARSONS        CLOUDY    73  69  87 NW9       30.04R
COFFEYVILLE    CLOUDY    73  69  87 N12       30.02R
EMPORIA        CLOUDY    73  68  84 W5        30.05S
GROVE OK       CLOUDY    79  73  83 W6        30.00S
ROGERS AR      CLOUDY    81  74  79 SW12      30.01S
SILOAM SPRINGS CLOUDY    81  66  61 SW10      30.02S
HARRISON AR    CLOUDY    83  73  72 W5        30.01F
NEAR YELLVILLE MOSUNNY   81  72  74 SE3       29.96S

......KANSAS AND MISSOURI......

CITY           SKY/WX    TMP DP  RH WIND       PRES   REMARKS
KANSAS CTY INT PTSUNNY   77  63  61 N6        30.03S
DOWNTOWN KC    MOSUNNY   79  64  60 NE5       30.01S
COLUMBIA       CLOUDY    74  68  81 CALM      30.00R
SEDALIA        PTSUNNY   76  69  79 NE3       30.01F
ST JOSEPH      SUNNY     76  66  71 N9G18     30.02F
ST LOUIS       CLOUDY    81  68  64 VRB5      29.98R
SPIRIT OF STL  CLOUDY    80  70  71 CALM      29.96S
KIRKSVILLE     MOSUNNY   73  64  73 N5        30.01S
WICHITA        PTSUNNY   74  69  85 NW9       30.06S
TOPEKA         SUNNY     75  66  73 NE6       30.03S
OLATHE         CLOUDY    75  66  73 E7        30.02S

......TENNESSEE......

CITY           SKY/WX    TMP DP  RH WIND       PRES   REMARKS
MEMPHIS        CLOUDY    80  72  76 SW8G17    29.99F
NASHVILLE      PTSUNNY   81  73  76 S12       29.99S

......ARKANSAS.......

CITY           SKY/WX    TMP DP  RH WIND       PRES   REMARKS
FAYETTEVILLE   CLOUDY    80  75  84 SW7       30.01S
FT SMITH       PTSUNNY   85  72  65 W8        29.97F HX  91
LITTLE ROCK    PTSUNNY   83  73  72 SW14      30.00S

......OKLAHOMA.......

CITY           SKY/WX    TMP DP  RH WIND       PRES   REMARKS
TULSA          CLOUDY    76  68  76 VRB6      30.00R
PONCA CITY     LGT RAIN  70  63  78 SE12      29.97F
MCALESTER      PTSUNNY   82  73  74 W10       30.02R
OKLAHOMA CITY  RAIN      69  66  90 N5        30.08S FOG

......IOWA............

CITY           SKY/WX    TMP DP  RH WIND       PRES   REMARKS
DES MOINES     CLOUDY    70  62  76 N5        30.02S
QUAD CITIES    PTSUNNY   75  68  78 SW6       29.94S

......ILLINOIS........

CITY           SKY/WX    TMP DP  RH WIND       PRES   REMARKS
QUINCY         PTSUNNY   73  71  93 NW5       29.97S
CHICAGO        CLOUDY    78  69  73 E5        29.92F



USA.gov is the U.S. government's official web portal to all federal, state and local government web resources and services.